Theta_e
352 351 353 357 357 358 358 357 358 358 358 359 359 360 360 360 359 359 359 358 358 357 357 356 356 356 355 355 356 355 355 355 355 353 353 352 352 354 353 353 353 353 354 353 353 354 354 354 354 353 353 353 352 352 351 351 351 350 350 350 351 351 350 350 349 349 348 348 348 348 347 347 348 348 348 348 349 348 347 346 345 340 340 342 343
350 351 355 355 357 358 358 357 358 358 358 359 358 360 360 359 359 358 358 358 358 357 357 356 355 355 354 354 355 355 355 355 354 353 352 353 353 354 353 353 353 352 353 353 353 353 353 351 351 352 352 352 352 352 352 351 351 350 350 350 349 349 349 349 350 350 348 348 348 348 348 347 348 348 348 349 348 347 346 345 345 340 340 344 344
352 352 354 355 358 358 358 358 358 357 358 358 358 359 359 358 358 358 357 357 357 357 356 355 355 355 354 354 354 355 354 354 354 353 353 353 353 353 353 352 352 353 352 353 352 352 352 354 354 354 354 353 352 352 351 351 351 350 349 349 349 349 349 350 348 348 349 348 349 349 348 348 348 347 347 347 346 345 345 345 345 344 340 344 344
351 352 354 357 358 357 357 358 357 357 357 357 358 359 358 358 358 358 357 357 357 356 356 355 354 354 354 354 354 354 354 354 353 353 352 354 353 353 353 352 352 353 352 351 353 354 354 354 354 354 354 354 354 353 352 351 350 349 350 349 349 349 348 348 348 345 347 348 347 348 347 343 345 347 347 347 346 345 345 346 345 344 344 344 344
351 352 355 355 355 357 357 358 357 357 357 357 358 358 358 358 358 358 357 357 356 356 355 354 354 354 354 354 354 355 354 354 353 352 352 353 352 352 352 352 352 351 352 353 354 354 353 353 354 354 354 353 353 353 352 352 351 350 349 349 348 349 348 348 348 345 344 346 348 348 344 343 343 346 347 347 347 346 346 345 345 345 344 345 344
351 353 354 353 353 355 357 357 357 357 357 357 357 358 358 358 358 358 357 357 356 355 355 354 354 354 354 354 354 354 354 353 352 352 353 352 352 351 352 352 351 351 353 353 353 353 353 353 354 354 355 354 354 353 353 352 352 351 350 349 348 348 348 350 345 345 344 343 345 346 344 341 342 344 347 347 346 346 346 346 346 345 344 344 345
352 352 352 352 353 355 356 357 357 357 356 356 356 357 357 357 357 356 356 356 355 355 354 354 354 354 354 353 354 354 354 353 352 352 351 351 352 351 351 351 351 352 352 353 353 353 354 353 352 352 353 353 353 353 352 352 352 350 350 350 350 348 349 349 348 345 345 343 346 348 345 342 343 343 347 347 346 346 346 345 345 345 345 345 346
352 350 351 352 353 355 356 356 357 356 356 356 356 357 356 356 356 356 356 355 355 354 354 354 354 354 354 354 353 354 353 352 351 351 350 351 353 352 350 351 352 352 352 353 353 353 353 352 351 352 352 353 353 353 351 351 352 351 350 351 351 351 350 351 349 345 345 346 349 343 339 342 343 343 347 347 346 345 345 345 345 346 346 346 346
349 349 351 353 353 356 355 356 356 356 356 355 356 356 355 355 355 355 355 354 354 354 353 354 354 354 354 354 353 353 353 351 350 350 349 350 353 352 351 350 351 351 351 352 352 352 351 350 351 352 353 353 353 353 352 351 351 352 352 350 352 351 352 351 351 349 346 343 342 341 340 341 342 343 347 347 346 346 346 345 345 346 347 347 347
348 349 351 354 353 356 356 356 356 356 355 355 355 355 355 355 355 354 354 354 353 353 353 354 354 354 354 353 353 353 353 351 350 350 349 349 352 352 351 352 350 350 350 351 351 351 350 350 351 351 352 353 352 352 352 352 351 352 352 352 352 352 352 353 351 349 344 342 342 343 344 347 343 344 346 347 347 346 346 348 347 346 346 347 347
347 350 352 354 353 355 355 355 355 355 355 355 355 355 354 354 354 353 353 353 353 353 352 353 353 354 353 353 353 353 353 351 350 349 349 349 350 351 349 350 352 351 350 351 351 351 350 350 350 351 352 352 352 352 352 353 352 350 353 350 352 352 353 350 344 341 342 345 341 342 346 349 343 343 347 347 347 347 347 347 347 347 346 346 345
347 350 354 355 357 355 355 355 355 355 355 355 354 354 354 353 353 353 353 353 353 352 352 353 354 353 353 353 352 353 353 350 349 349 349 349 348 349 349 350 350 352 351 349 349 350 349 350 350 351 352 352 352 351 351 351 352 352 350 351 353 351 346 346 343 343 341 342 343 343 343 343 343 345 347 347 347 347 347 347 347 346 346 345 345
347 350 356 355 354 355 355 354 354 354 354 354 354 354 353 353 353 353 352 353 353 352 352 353 353 354 354 354 352 353 352 351 349 349 348 348 348 348 350 350 351 351 349 349 350 349 348 349 349 351 351 352 351 351 350 349 351 351 350 352 350 345 344 345 343 342 341 340 343 343 343 343 344 347 347 347 347 347 347 346 346 346 345 344 343
349 355 354 353 354 356 355 354 354 354 354 354 354 353 352 353 352 352 352 353 353 353 352 353 353 353 353 353 353 352 352 351 349 349 348 348 348 348 348 348 349 349 349 349 350 349 348 348 349 350 350 351 350 350 349 349 349 350 351 352 349 345 344 343 343 343 340 344 345 344 344 344 343 346 346 347 347 347 347 346 346 344 343 342 340
354 355 354 353 353 354 356 355 354 354 354 353 353 353 352 352 352 352 351 351 351 351 352 352 352 352 352 353 352 352 352 350 349 348 348 348 348 348 348 349 348 349 349 348 348 348 347 346 347 349 350 350 350 349 349 348 349 349 350 350 348 346 345 345 347 344 344 344 344 344 343 343 346 346 347 347 347 346 346 344 343 342 341 339 338
356 355 354 352 351 353 354 355 354 354 354 354 353 352 352 351 351 351 350 350 350 350 350 350 350 350 352 352 352 352 352 351 349 349 349 347 347 348 348 349 348 348 347 348 347 346 347 346 347 348 349 349 349 349 348 347 348 348 347 348 348 347 346 345 346 345 348 344 343 344 343 344 346 346 346 347 346 346 344 342 340 339 338 336 335
352 352 351 350 351 351 352 352 353 354 354 354 353 352 351 351 351 350 350 349 349 349 349 349 349 350 350 351 351 351 352 351 349 348 347 347 347 346 347 348 347 347 347 347 347 346 346 346 346 348 349 349 349 349 348 347 347 346 349 349 349 349 348 345 343 343 344 343 343 343 342 343 345 345 345 346 345 344 341 340 338 337 335 333 332
351 350 349 349 349 350 350 351 351 351 353 353 352 351 351 350 351 349 349 349 349 349 350 349 350 350 350 350 350 351 352 351 349 348 347 347 348 347 348 347 347 347 347 348 347 346 345 346 347 348 348 348 349 349 348 347 347 349 351 349 347 346 346 347 344 346 342 345 343 344 343 345 345 345 344 344 343 341 339 337 336 335 333 332 331
349 349 349 348 348 348 349 350 351 348 352 351 350 350 351 350 350 349 349 350 350 350 350 350 350 349 349 349 350 350 352 350 349 348 347 347 347 348 347 347 346 346 346 347 347 345 345 345 344 346 348 348 348 349 348 347 348 348 351 348 348 349 350 348 343 342 344 343 342 341 342 344 343 343 342 342 341 338 336 335 335 334 334 333 331
347 348 348 348 348 348 348 349 349 349 350 350 349 349 349 350 349 349 349 350 349 351 351 350 350 350 349 349 349 350 349 348 349 347 347 347 348 347 347 346 345 345 345 347 347 345 345 344 345 345 347 349 348 348 348 347 348 349 349 348 349 349 346 344 343 343 342 342 343 341 343 343 342 342 341 339 339 337 335 334 333 333 332 332 331
346 346 346 346 345 346 346 350 349 348 350 350 349 347 347 350 349 349 349 349 348 349 350 350 350 350 349 349 348 346 348 347 347 346 348 347 348 347 347 346 345 344 344 347 347 346 345 344 343 345 345 347 349 348 348 347 346 350 347 347 348 348 346 342 344 344 342 342 342 341 343 342 341 341 340 339 337 336 334 332 331 331 331 331 330
344 344 344 344 344 345 347 348 347 348 349 350 349 347 348 347 347 347 347 347 347 347 347 348 350 348 349 347 347 346 344 345 346 349 346 348 347 348 347 346 345 344 345 346 347 346 345 344 344 342 344 347 349 345 346 348 348 349 347 347 348 349 344 343 343 342 341 341 342 341 342 342 341 340 339 337 336 335 333 333 332 330 329 329 329
342 344 343 344 346 345 349 347 348 348 349 350 348 347 346 346 345 346 346 346 345 346 345 346 346 345 346 345 347 346 344 344 346 347 346 348 348 348 347 346 344 344 343 344 346 346 345 346 344 344 343 346 345 345 340 341 343 346 345 343 346 348 344 344 341 340 340 340 340 342 342 341 340 339 337 336 335 333 332 332 331 331 329 329 328
343 344 343 345 347 346 347 348 348 347 349 349 347 346 345 345 346 345 344 345 345 343 343 342 341 343 343 345 345 344 344 345 345 349 345 346 347 348 347 345 345 344 343 343 344 345 345 346 347 345 342 337 338 338 338 338 338 341 342 345 345 345 344 343 341 340 340 341 340 342 341 340 338 337 335 334 333 332 331 331 331 330 329 329 328
345 347 345 346 347 347 348 348 349 348 349 349 346 345 344 345 345 344 344 345 344 344 343 342 343 342 341 342 342 345 344 344 344 343 342 344 345 345 344 343 342 341 342 341 342 340 343 339 339 342 336 334 333 337 340 340 339 341 343 343 344 343 343 343 342 340 339 340 340 340 339 336 335 334 333 332 331 331 331 328 328 329 328 328 327
345 345 345 346 348 347 348 348 349 347 347 349 346 345 345 344 344 344 344 344 345 344 343 343 343 342 340 339 342 342 345 342 343 342 341 342 343 343 343 342 340 339 341 341 341 339 337 337 334 333 334 334 332 333 335 338 337 340 343 344 344 342 343 343 341 339 338 337 336 337 336 335 335 334 334 332 330 330 330 330 329 329 327 327 327
344 346 348 347 348 348 349 347 349 347 348 350 348 346 345 345 345 344 344 345 344 344 344 345 344 343 341 343 344 339 342 342 342 342 340 341 341 341 342 341 340 338 340 339 340 339 335 336 334 332 332 332 332 332 333 332 338 340 343 341 341 342 342 341 339 336 335 334 334 335 334 333 332 332 331 331 331 330 330 329 328 328 327 327 326
343 348 347 348 348 348 350 347 347 347 348 350 349 344 345 346 346 346 345 346 344 344 346 346 347 344 346 349 345 341 342 341 341 340 341 340 340 340 340 339 340 338 339 336 338 337 334 333 335 331 329 328 331 333 332 337 336 338 339 339 340 341 341 340 336 335 333 332 332 333 332 332 332 331 330 330 330 330 330 329 328 327 327 326 326
342 347 347 349 349 348 351 346 346 348 348 351 349 345 346 346 346 346 345 348 345 345 348 349 348 346 349 345 344 342 341 342 339 339 341 338 340 339 339 338 338 338 337 332 337 337 334 331 334 331 329 333 339 334 337 338 338 336 337 338 340 340 341 342 334 332 331 329 329 331 332 331 331 330 330 329 329 329 328 328 328 327 327 326 326
345 348 347 349 349 348 350 346 346 349 348 349 350 347 344 345 346 346 349 346 347 348 352 350 349 349 348 344 345 341 340 341 339 339 339 339 340 339 339 338 338 339 335 331 337 340 333 330 337 334 332 334 334 335 335 335 338 337 336 337 338 339 341 342 333 332 330 329 329 329 331 330 330 330 329 328 328 328 329 328 328 327 327 327 327
349 348 346 348 351 347 348 347 346 349 347 347 350 349 345 346 346 347 349 346 347 351 351 350 349 349 349 348 345 346 344 344 339 340 341 341 344 340 340 342 339 340 337 332 340 341 337 336 339 334 333 338 340 335 335 334 337 337 336 337 337 339 339 343 333 330 328 327 327 327 327 329 328 326 325 325 325 326 327 328 327 327 326 326 326
348 348 348 349 350 349 348 348 347 349 347 347 350 350 346 347 347 347 347 346 352 350 349 349 348 348 349 350 346 346 348 350 344 342 346 345 345 347 344 347 346 344 343 338 340 341 339 337 339 336 347 339 341 336 338 336 337 338 335 334 336 336 339 337 332 331 329 327 325 324 325 325 327 327 327 327 327 327 326 327 327 327 326 325 325
349 349 350 350 349 349 348 348 348 351 348 347 347 350 349 349 348 348 348 348 351 349 348 349 349 349 349 350 347 346 346 352 346 343 345 342 345 345 343 346 343 344 344 340 342 338 338 341 335 343 340 342 338 339 337 337 336 337 337 335 335 335 336 334 333 330 328 326 325 325 324 325 326 329 327 327 327 327 326 326 326 327 326 325 325
348 349 351 349 349 349 349 349 350 350 348 348 348 349 350 349 349 350 350 349 348 347 349 351 349 350 349 350 347 345 345 351 346 345 345 341 344 345 344 344 342 346 346 346 346 343 341 341 341 341 342 339 340 337 337 334 335 337 337 336 334 334 334 332 332 330 329 326 325 325 324 324 324 323 324 327 326 326 325 325 325 325 325 325 324
348 349 349 349 349 350 350 349 349 349 348 348 348 348 351 350 348 349 349 350 347 347 349 351 349 349 349 348 348 345 344 346 346 347 346 342 342 340 340 343 345 342 349 344 347 345 344 341 341 340 341 341 337 337 335 335 334 334 336 334 329 330 329 327 328 327 328 327 327 325 324 323 323 322 322 320 323 324 324 324 324 324 324 324 324
349 348 351 349 348 350 350 350 349 348 349 350 348 350 350 351 348 349 350 350 347 347 349 349 348 349 348 347 347 346 345 344 344 345 347 342 340 337 341 340 343 345 345 346 346 339 344 342 343 344 337 335 335 336 338 335 335 332 330 330 330 329 327 327 325 325 326 327 325 325 326 324 323 322 323 318 318 321 322 321 321 322 323 324 323
350 349 351 349 348 349 350 350 349 349 349 349 349 351 349 350 349 348 350 350 347 347 348 349 349 348 348 346 346 346 343 344 344 344 345 342 338 337 338 341 344 345 346 345 344 343 341 342 341 342 339 337 333 332 336 335 334 332 332 329 328 329 328 329 329 327 331 322 323 326 326 326 325 328 320 318 316 317 320 321 320 320 321 322 322
352 351 351 349 348 349 349 350 350 350 349 348 348 349 348 349 348 347 349 347 348 347 347 347 347 347 347 345 345 346 342 343 344 343 342 344 337 337 336 346 342 345 345 342 343 344 341 343 341 342 342 337 337 334 334 333 332 329 328 330 329 329 328 328 327 329 325 323 325 324 324 323 322 319 318 316 315 315 314 317 320 320 320 320 320
351 351 351 350 348 349 349 350 349 349 349 348 348 349 348 349 348 347 348 347 347 348 346 345 346 347 347 345 344 345 342 343 343 342 343 342 337 337 343 342 341 347 343 340 342 341 342 345 341 344 347 344 339 335 334 333 331 329 327 325 325 327 327 326 325 326 323 322 322 320 320 319 322 321 318 317 315 313 313 313 313 314 316 321 320
350 351 350 349 348 348 349 349 348 348 349 348 347 346 345 344 342 343 344 344 346 346 346 344 345 346 347 345 343 345 342 344 342 342 344 344 339 341 343 342 341 344 342 337 341 340 341 342 344 342 343 339 339 335 333 329 327 327 326 327 329 329 326 325 325 321 322 322 319 318 319 320 317 318 317 316 315 314 314 313 314 311 314 317 319
350 346 347 347 348 346 347 346 347 347 347 345 344 343 342 342 342 340 340 343 343 344 344 344 344 344 345 345 343 343 341 344 342 342 344 347 345 345 343 340 344 342 342 340 345 344 347 343 341 342 339 338 336 336 331 328 325 324 326 324 323 324 326 324 322 318 319 320 320 319 317 317 314 315 316 317 315 314 316 313 312 311 312 314 318
345 347 345 346 347 347 346 346 347 347 347 345 343 343 343 342 340 339 340 341 342 341 340 343 344 346 345 344 343 341 341 343 344 341 344 347 347 345 343 340 343 341 343 345 344 344 341 339 340 337 338 338 333 334 329 327 323 320 318 318 320 323 325 323 320 320 320 320 320 318 318 316 313 314 317 316 314 315 314 315 315 314 311 313 314
344 345 345 344 346 346 347 346 347 347 346 345 344 343 344 345 344 342 341 341 344 344 342 343 346 346 345 346 344 342 341 342 345 342 344 347 346 345 344 343 344 343 342 341 341 340 341 338 338 335 333 336 335 336 330 328 322 323 322 318 314 314 318 321 322 321 320 319 318 317 319 316 317 317 316 315 313 314 315 314 312 314 315 315 314
344 345 345 345 346 344 345 346 347 347 346 345 344 345 345 347 348 347 345 342 341 345 346 345 345 346 345 346 343 344 341 342 343 342 345 346 347 347 346 346 345 345 343 337 338 338 339 340 338 337 335 329 330 329 331 330 328 324 317 318 318 318 312 313 315 318 320 320 319 318 318 317 319 319 315 315 312 313 314 311 312 316 314 314 314
343 344 344 344 346 344 344 346 346 346 346 345 345 345 345 345 346 347 346 343 343 341 341 340 341 344 344 344 343 344 343 343 343 343 344 346 348 347 346 346 346 346 340 336 336 336 337 339 339 337 333 331 329 329 330 330 331 330 327 321 318 316 317 316 316 315 319 316 318 318 320 318 315 316 318 318 317 315 312 312 312 312 314 313 313
343 344 344 345 347 345 344 345 346 346 345 346 346 345 343 343 342 340 337 338 335 336 336 336 338 340 341 345 344 343 343 343 342 344 344 347 346 346 346 346 346 346 340 336 334 337 337 339 340 339 334 336 332 328 327 330 331 333 332 336 332 324 321 317 315 309 317 318 317 315 315 317 317 315 317 316 312 312 315 312 314 313 314 315 314
344 345 345 346 347 346 345 345 345 344 346 347 347 345 344 344 343 341 339 338 336 337 340 341 341 343 345 344 343 343 343 343 343 343 346 348 348 347 347 347 346 348 345 340 336 334 337 337 338 339 337 337 334 328 327 328 329 331 332 333 335 333 332 317 315 312 308 313 315 313 312 314 314 314 314 315 312 312 312 312 311 311 312 314 312
345 345 345 346 346 346 346 345 345 345 346 347 346 345 344 344 343 342 340 339 338 338 341 342 343 344 345 345 344 343 343 343 344 343 346 348 347 346 348 347 345 346 345 344 339 336 336 337 336 339 338 337 334 329 329 329 326 327 330 330 331 333 329 325 321 315 311 307 308 313 314 314 314 313 314 313 312 311 312 312 309 311 310 311 312
345 344 345 345 346 347 346 347 346 346 347 347 345 346 345 345 344 342 339 340 341 340 341 343 342 343 344 344 344 342 343 343 344 344 345 347 347 347 347 346 345 344 343 345 343 339 336 334 335 336 336 336 336 334 332 330 329 328 328 329 331 329 327 326 324 321 315 310 308 308 308 313 316 315 316 315 315 314 313 314 312 311 313 313 310
345 346 345 346 346 347 346 345 346 346 347 346 346 345 345 345 344 342 340 339 341 341 341 341 341 342 344 343 344 342 341 343 343 344 344 346 347 348 346 345 345 345 343 343 344 343 339 335 335 335 337 336 338 336 334 333 331 331 330 329 328 328 328 326 326 324 321 317 310 308 309 308 307 311 316 316 317 313 312 313 312 312 311 310 310
344 345 345 345 346 346 345 343 345 346 346 345 345 344 345 345 344 342 341 339 341 341 339 340 341 341 342 343 343 343 342 343 344 344 345 345 347 347 345 346 345 344 343 343 342 341 341 340 337 338 338 338 338 337 336 336 334 335 333 330 329 328 326 324 322 323 322 319 315 310 309 310 307 310 312 315 315 313 312 312 310 313 312 311 310
Wind_Speed
16 19 16 19 18 18 17 18 17 17 17 17 17 16 17 17 17 17 17 17 17 16 15 15 14 14 14 14 14 14 14 14 15 15 15 14 14 14 14 14 14 14 14 14 14 14 14 13 13 13 13 14 14 13 13 12 12 12 12 11 10 11 11 12 13 13 13 14 16 16 16 16 16 15 16 17 19 19 19 18 16 12 9 12 17
19 18 15 17 19 18 17 19 17 17 17 17 17 17 16 16 16 17 17 17 17 16 15 14 14 14 14 14 14 14 14 13 14 14 15 15 14 14 13 13 14 14 13 13 14 13 13 13 12 12 13 13 13 13 12 12 12 11 10 10 10 9 9 10 11 12 13 13 14 15 16 16 16 16 16 17 18 18 17 17 17 10 7 14 16
18 17 15 18 19 18 17 18 19 18 17 17 18 16 16 15 16 17 17 17 16 15 15 14 14 14 14 14 14 14 14 13 13 13 14 15 14 13 13 13 13 13 13 13 13 13 12 12 12 12 12 11 12 11 11 10 10 10 9 8 8 8 7 8 11 10 10 13 14 15 15 16 16 16 17 17 16 16 17 16 16 14 10 16 15
19 15 15 17 19 17 17 18 18 18 18 17 17 16 16 15 15 16 17 16 16 15 15 15 14 14 14 14 14 14 13 13 12 12 14 14 14 14 13 13 12 13 13 12 12 11 11 11 11 11 10 10 10 10 10 9 8 8 7 6 6 5 6 7 8 15 10 8 6 8 5 8 10 15 15 15 16 15 15 16 16 16 16 15 17
18 16 15 15 16 16 16 17 17 19 17 18 17 17 16 15 15 15 16 16 15 15 15 14 14 14 14 14 14 14 13 13 13 12 14 14 13 13 13 12 12 12 12 11 11 11 10 10 10 10 9 9 9 8 8 7 7 6 6 5 4 4 4 6 9 15 7 7 8 7 3 7 8 14 14 15 15 15 15 15 15 15 15 16 16
17 16 15 15 15 15 17 16 17 19 18 17 17 17 16 16 15 16 16 15 15 15 15 15 14 14 14 14 14 14 14 13 13 12 11 13 12 13 13 12 12 12 12 11 11 10 10 9 9 9 9 8 8 7 6 5 5 5 3 3 2 3 4 4 14 8 4 1 6 5 7 6 8 9 14 14 14 14 15 16 16 14 14 15 17
19 15 15 14 13 15 17 17 17 18 19 18 18 18 17 16 16 16 16 16 15 16 15 15 15 14 14 14 14 14 14 13 13 12 12 11 11 13 13 12 12 12 11 11 10 9 9 8 8 8 8 8 8 7 5 5 4 2 2 0 2 2 3 6 8 6 1 2 1 2 4 7 7 7 14 13 13 14 15 15 15 14 15 15 17
15 14 15 14 12 16 18 18 18 19 18 18 18 17 17 17 17 16 16 16 16 16 15 15 14 14 13 13 14 14 14 13 13 12 11 10 10 12 13 12 12 12 11 11 10 9 8 8 8 8 8 8 7 6 5 4 4 2 1 2 3 3 4 5 5 7 1 2 2 2 4 8 8 7 13 14 13 11 13 15 15 16 16 18 17
15 16 15 14 14 20 17 17 18 19 18 18 18 18 18 17 17 17 17 17 16 16 16 15 15 14 14 14 14 14 13 13 13 12 11 9 10 12 12 12 12 11 11 10 9 8 7 7 7 8 8 8 7 6 5 3 3 3 1 2 4 3 4 5 7 4 1 0 3 6 3 9 9 8 12 14 14 15 14 13 13 17 18 18 18
16 15 14 13 15 20 19 17 17 18 18 19 18 18 18 17 17 18 18 17 16 16 16 15 14 14 14 14 14 14 13 13 13 12 11 10 11 12 12 11 12 11 11 11 9 8 7 7 7 7 7 7 7 6 5 4 3 3 1 1 2 3 5 7 11 6 3 1 3 8 11 12 9 8 11 14 15 15 16 17 14 15 15 18 19
17 14 13 14 20 20 19 18 17 17 19 19 18 18 17 17 17 17 18 17 16 16 16 15 15 14 14 14 14 14 13 13 12 12 11 11 10 12 13 11 10 10 11 10 8 8 7 7 7 7 7 7 7 6 5 5 4 2 2 1 2 3 9 12 13 7 6 3 5 8 11 15 8 6 12 14 15 16 17 18 17 17 18 19 18
16 13 13 14 20 19 18 17 17 17 17 19 19 19 17 17 17 17 18 17 16 16 15 15 14 14 14 13 14 14 13 12 12 12 12 11 12 12 12 11 10 9 10 10 8 8 6 6 6 6 6 6 6 6 5 4 4 3 2 1 4 13 10 9 5 5 10 7 6 10 10 10 9 9 14 15 16 17 18 17 18 18 18 18 18
16 13 14 16 16 19 18 17 17 17 17 19 19 19 17 16 16 17 17 15 15 15 15 14 13 13 12 12 14 14 13 12 12 12 12 12 12 12 11 10 9 10 11 10 9 7 5 6 6 6 6 6 7 7 6 5 5 4 1 5 14 10 5 6 2 5 5 10 1 9 9 7 8 12 14 16 17 18 18 18 18 18 19 19 20
15 14 15 15 13 20 20 17 16 16 16 17 17 17 17 16 16 16 15 14 14 13 12 12 12 14 13 12 13 14 13 12 12 12 12 12 12 12 11 11 11 11 11 10 8 6 5 5 6 6 6 7 7 7 7 6 6 4 6 13 12 7 5 4 3 4 3 6 7 8 9 6 8 14 15 16 17 18 18 19 19 20 20 19 19
16 17 15 14 16 15 20 18 16 16 15 15 15 16 16 16 15 14 13 13 12 11 12 13 13 12 13 13 13 15 13 12 12 12 12 11 12 11 12 11 11 11 10 9 7 6 5 5 6 6 6 7 7 7 7 7 7 7 11 12 10 6 2 3 3 2 2 2 6 10 8 8 13 14 16 16 17 18 20 19 19 19 19 18 18
16 17 16 14 16 15 14 17 17 15 15 15 14 15 15 15 14 14 14 13 12 12 12 13 13 12 12 12 13 15 14 12 12 11 11 12 11 11 11 11 11 11 10 8 7 5 5 5 6 6 6 7 8 8 7 7 8 8 12 13 9 8 7 5 1 1 1 4 7 8 9 9 15 15 16 17 18 19 19 19 18 17 17 18 18
14 15 17 17 17 15 13 14 14 16 14 15 14 14 14 13 14 14 13 14 14 13 13 14 14 12 12 12 13 14 14 12 13 12 11 11 11 11 11 10 11 10 9 8 7 5 5 5 6 6 6 7 8 8 7 8 7 7 11 11 9 8 9 7 2 1 2 6 9 8 7 7 14 16 17 18 19 20 18 16 16 17 17 18 18
14 15 16 17 17 14 13 12 13 13 11 12 14 15 14 14 14 14 14 14 14 13 13 14 13 12 13 13 12 14 14 12 12 12 11 10 9 11 11 11 11 10 9 8 6 5 5 6 6 6 6 6 7 7 7 7 6 6 11 11 10 9 7 8 3 0 6 9 8 8 7 12 17 18 19 19 18 17 17 16 16 17 17 18 18
14 15 16 17 17 16 14 12 13 13 12 9 9 12 16 15 15 15 15 15 14 13 14 14 13 13 13 13 12 14 15 14 14 12 12 11 11 12 11 10 11 10 9 8 6 5 5 6 5 5 6 6 6 6 6 5 4 7 12 11 10 10 9 5 4 7 7 7 7 7 8 16 17 18 17 17 17 17 16 16 16 16 16 17 18
12 15 15 15 16 16 15 13 12 12 11 9 10 11 15 17 16 16 16 16 16 15 14 14 14 14 15 14 14 11 13 12 13 11 13 12 12 10 11 10 10 10 10 8 7 5 5 5 5 4 5 5 6 6 6 4 3 7 12 10 9 8 5 4 7 8 7 7 8 6 12 17 17 17 17 17 16 16 16 16 16 16 16 16 18
10 13 13 13 16 16 17 11 13 14 13 11 10 11 12 16 14 16 17 16 16 15 14 15 14 13 12 12 12 8 7 7 9 9 12 9 11 12 12 11 10 10 10 8 6 5 4 5 4 4 4 6 6 5 5 5 2 7 12 10 9 6 5 5 6 6 7 7 7 7 16 16 17 16 16 16 16 16 16 16 16 15 15 16 17
10 11 13 15 15 15 16 15 12 14 13 9 9 8 11 13 11 11 11 12 13 14 11 10 12 10 14 10 7 6 6 6 6 9 8 9 10 13 11 11 10 10 9 7 6 4 3 3 3 4 4 5 8 4 3 4 2 7 11 9 5 3 5 4 6 6 7 6 6 9 16 16 16 16 15 15 16 16 15 15 15 15 15 15 15
10 11 11 14 12 13 16 15 14 13 14 11 10 9 12 10 12 10 9 12 11 11 9 10 9 10 10 9 7 6 7 7 6 8 7 11 9 12 12 10 10 10 9 7 5 4 3 3 4 4 5 6 4 3 4 4 3 7 10 4 3 2 5 4 6 6 6 6 5 13 14 15 15 15 16 16 16 14 14 14 15 16 15 14 14
9 10 12 11 13 12 14 12 15 15 14 10 9 10 9 10 9 9 8 8 8 9 8 9 8 9 8 7 6 7 7 6 11 14 10 8 9 11 12 11 10 10 9 5 5 4 4 5 5 5 5 4 4 5 5 5 5 4 6 3 3 4 5 5 5 6 6 8 7 14 13 14 15 16 16 15 15 14 14 14 14 15 15 14 15
9 9 10 11 14 14 14 13 14 13 13 9 10 10 9 8 9 9 9 8 8 8 7 7 7 7 8 7 8 6 6 7 6 5 4 7 8 7 6 5 5 5 8 4 4 5 4 5 4 4 4 5 6 6 3 6 7 5 4 3 4 5 5 5 6 7 7 6 8 15 15 14 15 15 16 15 15 14 14 13 13 14 13 14 15
9 10 11 12 13 15 15 13 14 13 13 10 11 11 11 8 9 9 9 9 8 8 8 8 8 9 7 8 7 7 6 5 5 5 5 7 8 7 6 5 6 6 7 5 5 4 5 5 5 5 5 4 7 6 7 7 9 4 3 4 5 5 5 5 6 7 7 6 9 15 15 15 15 15 15 15 14 14 13 13 13 13 13 13 15
9 9 10 10 12 13 13 14 14 13 13 12 11 11 10 9 8 9 9 9 9 8 8 8 9 9 9 9 7 6 7 7 7 7 5 6 7 7 7 6 5 5 7 6 5 5 6 5 5 5 6 7 9 5 4 9 12 4 4 5 5 5 6 7 7 8 7 7 9 15 14 14 15 15 14 14 14 14 13 12 13 13 12 12 13
7 10 10 10 11 15 13 14 13 13 12 13 11 12 10 10 9 10 10 10 10 8 8 8 9 9 8 6 7 5 5 8 7 7 5 5 6 7 7 6 6 6 7 7 6 5 6 6 5 7 8 8 8 4 4 13 13 6 5 5 4 5 5 6 8 8 7 6 7 12 14 14 13 13 13 13 13 13 13 13 11 11 11 12 13
11 10 10 11 12 13 13 16 14 14 11 12 12 11 11 10 10 10 8 10 8 9 9 8 8 9 7 8 5 5 4 4 7 6 5 6 7 6 6 7 7 6 7 7 6 6 6 7 6 6 7 5 1 4 7 9 14 8 5 6 4 4 4 3 7 8 7 6 6 9 12 12 11 10 11 11 11 11 11 12 12 10 11 12 12
10 11 11 9 11 14 13 15 14 14 11 12 11 11 11 11 10 10 7 10 7 8 7 7 8 7 6 9 7 7 6 5 6 6 6 7 6 8 8 7 8 6 7 7 7 6 6 6 6 5 3 4 4 3 6 7 11 12 6 3 4 3 4 2 8 7 7 7 6 7 12 9 9 10 11 11 11 10 11 12 12 11 10 11 12
9 11 12 10 9 15 13 13 15 13 12 11 11 10 11 10 11 10 8 9 8 7 7 8 7 7 6 8 8 7 8 6 7 6 5 6 4 8 7 7 8 7 7 7 6 5 5 6 3 4 4 3 2 4 4 6 7 14 8 5 3 3 3 2 7 8 8 7 6 5 8 12 11 11 11 10 10 9 9 10 11 11 10 10 11
11 12 10 10 10 12 13 12 13 11 11 11 11 10 10 9 10 10 9 10 7 7 7 7 7 8 7 5 7 5 4 4 7 6 3 3 3 2 4 2 3 4 4 6 5 5 4 4 3 4 0 3 4 3 4 6 7 9 14 8 5 3 3 3 7 8 8 8 7 6 5 7 10 11 10 9 10 10 9 9 10 10 10 9 10
9 11 11 11 12 12 11 12 13 11 11 10 8 9 9 8 10 8 7 9 7 6 7 5 8 6 7 7 6 5 4 3 6 6 3 4 3 3 3 2 3 3 3 5 4 5 4 3 5 2 3 3 4 4 5 6 6 6 9 13 9 7 4 4 5 8 9 8 7 7 6 6 6 9 10 11 10 10 9 8 8 9 9 9 9
10 10 12 12 11 9 8 8 11 12 12 9 7 8 8 7 9 6 8 7 6 7 6 4 7 6 8 6 6 5 5 2 5 6 4 5 3 3 3 3 4 3 3 4 3 3 3 3 3 4 3 4 2 4 5 5 6 4 3 6 4 2 5 5 4 7 8 8 8 7 7 6 6 5 6 12 11 10 9 8 8 7 7 8 8
11 12 15 16 13 10 9 8 11 11 12 11 10 8 8 7 8 7 9 7 7 6 6 5 6 6 8 7 6 5 5 4 5 4 4 5 4 5 5 3 3 4 2 4 2 2 3 3 4 3 2 2 3 5 3 6 5 6 3 5 5 4 4 4 5 4 7 8 8 8 7 7 6 6 5 4 8 10 9 9 8 7 7 6 8
15 14 14 16 15 12 12 9 12 13 11 9 9 7 8 8 7 7 8 8 7 5 6 6 5 7 7 7 6 6 5 5 6 5 4 4 5 6 5 4 4 3 4 3 2 5 3 4 3 3 4 3 4 3 3 6 6 8 6 6 5 4 4 3 3 3 3 6 6 8 7 7 8 7 8 5 4 5 10 8 8 7 7 7 6
14 14 15 17 16 16 13 11 13 13 11 10 10 7 8 7 7 7 9 7 8 5 6 5 5 7 6 7 7 6 5 5 6 6 5 4 5 5 4 5 5 4 4 4 3 4 5 3 4 3 4 3 4 5 5 5 7 6 5 6 5 4 3 3 2 2 1 4 4 5 6 4 7 9 7 7 5 5 7 9 8 8 7 7 6
13 14 16 17 17 15 13 11 12 11 10 10 9 7 8 6 6 7 7 7 7 6 6 6 6 6 7 7 7 6 7 6 7 6 7 4 6 5 6 5 6 5 5 5 4 4 5 3 4 3 3 4 2 6 5 5 6 6 5 4 4 3 2 2 2 1 2 3 4 3 6 7 7 7 8 7 6 5 4 7 9 9 9 7 6
8 12 16 13 13 12 12 11 12 11 10 10 10 7 8 7 6 7 7 7 7 6 7 7 6 7 7 9 10 7 8 7 7 8 7 5 5 6 5 7 5 4 6 5 3 4 5 2 4 2 2 2 4 5 5 5 7 6 5 5 4 1 1 2 4 3 3 3 3 5 4 3 3 5 8 8 7 6 5 5 5 3 4 11 9
4 6 13 14 13 14 11 11 12 11 9 10 10 8 8 8 7 8 8 8 7 7 7 7 7 8 8 8 9 7 8 6 8 8 7 5 6 5 7 6 5 5 6 6 3 5 5 4 4 3 2 3 3 6 6 8 8 7 5 3 1 1 1 1 1 4 3 3 4 4 4 3 5 4 5 7 7 7 7 7 6 5 4 8 9
5 8 10 13 13 15 14 14 13 12 11 11 11 10 10 8 6 9 9 9 8 7 7 7 7 7 9 9 10 8 8 7 8 8 7 6 5 7 7 6 4 5 5 5 3 6 6 5 3 3 2 3 2 4 7 8 8 5 4 3 3 2 1 1 3 3 2 1 3 3 4 4 4 3 3 4 4 4 6 8 6 6 5 4 6
8 10 10 10 10 13 15 14 12 13 12 11 11 9 9 8 7 8 8 9 8 8 8 7 7 6 7 9 9 9 8 8 7 8 6 5 5 7 7 6 6 5 5 3 7 7 7 5 3 3 1 2 2 4 8 10 4 6 5 4 2 1 1 1 1 1 1 3 3 4 3 4 5 4 3 3 4 4 3 4 4 8 5 5 5
14 14 14 13 12 12 12 13 12 13 11 12 11 10 8 8 7 6 8 8 6 5 6 7 7 7 8 7 10 8 8 8 8 9 7 5 6 6 7 7 6 6 6 5 6 5 5 6 4 4 4 1 1 2 8 6 6 6 4 4 4 3 1 1 2 1 3 2 3 4 3 4 4 4 4 4 4 4 4 3 4 2 4 6 5
12 13 12 12 10 11 12 14 13 12 11 12 12 10 10 8 6 6 6 8 6 4 4 5 6 7 10 8 9 8 9 9 9 9 7 6 6 7 7 6 6 6 6 5 3 7 5 5 5 4 4 5 3 3 4 6 5 8 7 5 5 4 3 4 3 3 3 3 3 3 4 3 3 3 4 5 5 5 3 5 4 2 1 2 4
14 15 15 14 10 14 13 14 14 14 11 12 13 11 10 9 7 6 6 6 5 6 6 8 8 6 8 9 10 9 10 9 9 9 8 8 7 7 7 7 7 7 9 6 4 4 6 4 5 5 6 6 7 5 5 7 6 8 3 4 3 3 5 5 6 3 3 2 2 3 3 3 2 2 3 3 4 4 5 4 4 5 1 1 0
16 14 15 16 14 14 13 12 12 12 12 12 12 11 10 9 10 10 10 9 10 10 11 11 10 8 9 8 10 10 10 8 9 9 8 8 8 8 7 8 8 7 10 9 6 5 6 7 6 6 7 5 6 4 4 4 6 5 8 0 0 1 2 7 7 4 2 2 3 4 3 3 4 3 3 3 3 4 4 4 5 4 2 3 1
14 13 13 14 14 14 13 13 12 13 13 13 12 11 11 9 11 11 10 9 9 7 7 7 8 7 7 8 9 9 9 9 9 9 9 8 8 8 8 7 7 7 8 11 9 8 6 8 7 6 8 7 6 7 8 7 5 6 7 3 1 2 2 9 3 6 4 3 3 4 4 5 4 4 4 4 4 4 4 5 5 4 4 1 1
15 13 13 13 16 16 16 14 12 12 12 14 14 13 12 10 10 11 10 9 8 8 9 9 8 8 9 9 9 9 9 9 8 9 9 9 8 8 7 7 7 7 8 9 12 9 7 5 8 8 7 5 7 7 7 7 8 6 5 4 4 5 4 5 6 7 6 6 3 3 3 5 5 5 4 5 4 5 6 4 6 5 5 5 3
16 15 15 15 14 15 15 15 14 15 14 16 16 15 13 11 10 9 10 8 8 8 7 8 9 9 10 9 9 9 9 9 9 8 9 9 8 8 8 7 7 7 7 7 8 12 12 8 7 6 7 8 6 7 6 7 7 6 5 6 4 4 3 4 4 6 3 3 4 6 4 4 3 4 4 4 4 6 6 3 3 5 6 5 4
15 15 15 14 14 15 16 16 15 14 14 17 16 16 13 11 10 11 11 9 7 8 8 9 9 9 10 11 9 9 9 8 8 9 9 10 9 8 8 8 8 7 7 8 8 9 12 12 11 9 8 8 6 5 7 7 7 6 6 4 5 4 3 2 2 3 3 6 6 8 7 8 7 5 5 4 4 4 6 5 3 2 6 6 4
14 16 14 14 13 14 16 18 15 13 14 17 17 17 15 12 10 11 12 11 10 10 10 11 10 10 10 11 10 8 9 8 8 8 9 10 9 8 8 7 7 7 7 8 8 8 7 9 12 11 11 10 7 8 5 5 7 5 5 6 6 5 4 3 4 4 3 3 3 6 7 6 9 5 7 6 5 3 6 6 4 2 1 4 6
Wind_Direction
133 133 136 140 139 141 141 140 141 138 138 139 136 130 130 130 127 120 116 115 115 115 114 113 114 113 112 111 107 106 107 106 105 103 104 103 100 100 99 98 99 100 99 97 94 92 86 84 83 81 80 78 77 74 72 70 67 68 69 71 71 70 72 77 78 77 82 80 74 71 68 69 67 64 61 57 54 54 56 67 74 66 68 68 69
136 131 133 141 140 140 142 143 141 140 139 138 138 131 128 128 123 120 117 116 115 116 116 116 118 116 116 115 112 110 110 111 110 109 106 106 104 102 103 102 100 100 100 98 95 91 88 86 85 81 80 79 78 76 73 71 70 71 72 70 71 74 75 79 83 86 82 80 82 73 70 67 64 63 62 60 60 59 60 65 69 70 71 72 70
126 130 134 138 138 140 141 141 142 142 140 141 140 130 126 125 123 120 119 118 117 117 118 119 118 120 119 119 118 114 113 114 112 114 112 105 106 106 104 105 104 101 101 99 96 93 91 87 84 82 79 79 79 77 75 73 74 72 71 70 68 66 73 72 83 92 90 83 83 88 78 71 67 65 65 64 66 69 68 68 71 72 69 66 66
125 129 131 134 136 138 141 140 142 143 142 141 138 128 126 127 125 121 121 119 120 121 121 123 122 123 124 122 122 119 117 116 116 116 115 110 108 108 108 107 108 104 102 102 99 94 91 88 84 82 80 77 76 76 77 76 73 72 69 66 64 62 64 72 78 60 49 80 52 356 76 73 68 68 69 68 67 68 70 72 71 70 69 67 65
125 130 130 135 136 138 140 140 144 143 143 145 137 132 128 128 126 124 122 123 123 125 125 126 128 128 128 127 126 124 122 118 117 117 117 115 114 113 112 110 109 109 106 103 98 93 88 86 84 80 78 74 74 76 73 78 78 74 68 66 57 52 43 64 59 66 32 359 349 354 43 88 76 69 69 69 68 66 67 66 68 70 69 68 64
127 129 133 137 139 142 140 141 145 145 145 144 140 136 134 132 128 127 125 126 128 130 129 129 131 132 130 130 128 128 125 121 118 118 117 119 124 120 116 113 111 112 111 104 97 93 86 83 81 78 75 74 73 73 74 76 80 82 72 46 53 32 37 36 69 62 9 322 341 356 321 76 78 70 68 69 68 66 66 65 65 64 65 66 62
128 132 135 138 139 144 142 142 144 145 147 146 146 143 140 136 134 132 131 133 134 135 133 134 135 134 133 133 131 129 127 125 123 123 126 127 130 124 119 118 118 116 113 106 99 90 85 80 78 75 72 74 71 70 73 79 84 82 85 5 327 15 13 32 91 114 100 1 309 316 321 87 78 73 68 69 71 69 66 65 65 66 65 65 67
127 135 139 137 140 144 143 143 145 146 147 147 147 146 146 146 142 137 137 140 139 139 137 139 137 137 135 134 134 130 129 127 129 130 132 136 129 124 122 123 121 119 116 109 98 89 85 79 74 72 69 67 67 66 64 70 76 92 37 278 294 327 24 15 18 62 340 263 302 88 260 83 76 75 69 69 68 63 70 70 67 63 64 66 67
133 137 139 137 138 144 143 145 146 148 147 147 147 149 149 148 145 142 140 141 142 142 141 140 140 139 138 136 134 135 131 130 132 134 138 138 130 124 125 127 125 123 117 106 96 86 78 74 68 67 68 65 61 61 55 52 79 71 98 288 294 331 355 353 12 25 62 135 82 255 195 84 79 73 65 66 67 66 63 64 63 65 67 70 68
136 139 138 135 142 145 144 145 147 148 148 149 150 151 149 148 146 143 142 142 145 144 143 141 142 142 140 140 137 138 135 133 134 137 140 135 128 130 127 131 130 125 122 107 100 90 83 73 63 61 65 64 62 56 58 51 58 81 55 287 304 339 5 1 359 18 47 256 180 78 69 79 75 70 69 69 66 67 69 73 74 72 68 66 68
138 138 138 133 142 144 145 146 147 150 150 149 151 150 149 148 147 145 145 146 147 147 146 145 144 144 143 143 140 139 139 137 138 140 141 136 130 125 130 133 129 128 125 111 104 95 86 71 61 55 53 57 57 53 49 58 57 72 69 276 329 21 23 21 18 11 324 12 11 83 82 77 72 68 75 74 73 73 72 70 70 69 68 68 68
137 138 131 131 136 141 143 146 147 148 151 150 151 150 150 148 147 147 147 148 149 149 147 146 146 146 145 145 142 140 142 140 140 142 142 139 134 131 129 130 133 134 125 119 107 90 81 69 62 58 53 56 56 54 51 57 68 74 96 253 47 45 41 40 37 28 357 352 41 74 72 72 75 75 77 79 80 77 74 73 71 70 69 70 69
136 135 117 126 138 141 142 145 147 148 151 151 151 149 148 147 148 148 148 148 150 151 148 147 146 146 147 144 144 144 142 143 143 143 142 142 139 130 119 120 121 122 122 113 97 89 85 74 64 55 50 48 52 52 51 55 66 72 82 46 64 77 58 50 64 57 75 310 99 76 78 79 78 83 83 85 85 81 78 75 74 73 71 68 65
132 109 121 130 137 141 140 143 147 148 153 152 150 149 149 149 150 150 146 148 149 148 143 139 144 147 146 144 146 144 142 144 143 144 145 144 137 129 122 116 120 122 117 111 105 99 88 75 67 56 49 49 48 46 47 52 60 62 56 65 81 81 70 49 33 66 83 256 65 79 72 71 83 86 86 87 85 82 78 75 73 69 67 66 65
118 120 124 128 137 140 138 142 145 147 150 150 148 148 148 148 148 145 144 145 143 144 139 137 141 143 143 144 143 143 142 143 145 147 146 142 136 129 122 117 117 119 117 115 112 109 95 85 72 60 54 52 50 54 50 53 60 61 65 74 74 83 65 96 67 260 148 101 73 73 75 78 83 86 87 85 84 84 79 73 71 71 69 67 66
120 127 121 127 140 141 141 142 140 146 148 146 145 147 145 144 144 142 143 145 144 140 140 140 148 147 138 134 141 145 143 146 144 144 143 145 143 135 125 120 121 131 133 126 121 122 107 85 76 68 60 57 60 58 59 63 67 72 77 78 74 83 89 82 62 347 10 64 79 80 80 80 81 82 84 83 83 81 78 75 72 71 70 69 67
123 125 130 138 140 144 141 146 141 144 144 144 144 141 140 141 140 143 144 145 143 142 146 150 152 144 142 139 140 145 143 145 143 145 147 147 147 142 131 129 132 135 139 132 134 133 113 91 84 77 68 68 67 63 66 70 70 74 75 86 83 84 111 92 79 20 43 83 83 77 78 81 82 81 80 80 79 77 75 74 73 74 73 71 68
130 135 136 139 142 145 146 145 147 152 145 142 140 138 141 143 144 144 146 145 144 148 150 151 147 146 146 144 144 146 143 144 146 149 149 150 145 134 136 140 142 145 144 141 144 139 116 98 89 86 83 80 79 77 75 76 68 66 73 87 96 102 98 106 109 231 79 82 80 81 81 88 84 80 75 74 74 75 74 74 76 77 76 74 72
133 136 137 142 146 144 146 144 156 161 151 147 147 143 147 150 148 148 148 146 146 146 150 148 147 148 150 150 147 148 146 147 151 151 149 149 141 139 141 145 150 152 147 146 151 143 119 109 101 92 95 91 91 92 90 83 75 66 74 76 68 81 85 92 98 84 70 70 79 88 91 92 87 83 80 78 78 77 76 76 78 78 78 76 74
140 139 143 147 149 148 149 156 157 160 155 153 147 151 155 152 152 150 148 148 148 147 144 150 150 151 152 155 151 147 149 148 153 152 151 152 149 147 145 148 151 149 153 152 156 151 129 118 111 105 107 109 108 106 101 92 72 71 73 65 62 62 53 47 72 78 78 84 86 85 96 91 88 85 83 82 81 81 80 79 78 78 77 77 76
143 142 145 150 150 149 155 156 161 163 159 150 147 150 155 154 152 150 151 150 149 148 150 149 148 153 152 153 155 156 156 149 157 160 158 158 162 149 150 149 152 153 158 156 158 156 144 127 132 131 131 134 129 117 106 99 55 68 71 69 66 51 53 53 70 79 82 82 88 96 99 94 91 89 86 85 86 85 83 82 79 79 79 77 77
152 144 148 152 153 154 153 162 162 161 162 146 146 154 154 157 152 152 152 154 154 155 154 152 150 151 153 154 160 164 169 155 172 161 164 165 162 154 152 154 156 159 163 161 156 163 161 155 152 168 173 167 159 152 132 103 84 68 73 69 58 56 92 76 82 81 83 85 95 103 100 99 95 91 88 88 86 85 87 85 84 80 77 76 77
167 147 153 156 157 153 156 162 162 165 156 150 150 148 156 159 154 154 153 155 161 161 164 160 154 156 156 164 167 171 174 166 175 170 171 169 157 159 156 160 159 160 170 166 165 177 196 194 201 210 214 202 198 201 153 154 129 92 70 57 46 23 80 88 84 81 84 90 94 103 102 100 94 89 90 89 88 88 87 87 84 83 81 81 79
165 154 152 159 154 156 158 159 160 166 153 158 148 147 160 161 154 156 152 156 161 169 171 166 166 164 164 172 176 181 171 157 183 183 173 157 151 164 163 162 166 164 172 173 182 205 218 229 235 230 240 212 213 232 156 154 132 100 105 90 68 60 59 62 76 85 95 99 98 102 95 89 90 92 90 90 90 89 85 82 80 80 80 77 74
162 154 155 160 161 153 155 157 162 165 156 154 140 151 165 160 160 158 159 161 166 172 169 174 165 171 170 177 182 182 166 171 174 180 154 155 159 162 163 170 165 178 174 195 177 196 201 213 211 218 237 218 206 223 179 139 104 85 89 95 95 95 86 81 85 92 89 89 100 98 94 93 93 93 93 93 92 89 88 85 84 82 78 79 78
167 158 164 162 159 154 154 156 163 164 162 152 151 155 167 167 166 160 163 161 174 168 169 181 162 172 177 183 193 172 171 156 148 181 183 157 170 162 174 181 185 181 174 207 187 193 186 218 202 201 226 232 222 206 190 125 109 104 103 89 97 98 103 102 91 82 81 86 93 96 98 98 97 98 98 94 92 90 88 91 92 87 81 82 80
168 158 160 159 150 149 157 161 164 163 164 156 153 158 172 170 169 158 166 166 179 171 171 188 164 173 183 185 163 179 174 148 164 187 192 172 169 169 180 184 189 183 169 208 195 191 182 215 204 206 211 226 241 196 124 108 113 105 85 101 108 113 116 108 102 96 93 94 97 98 100 101 100 99 100 98 95 94 95 92 85 83 86 85 82
171 151 163 158 156 157 158 169 163 161 168 159 154 163 169 171 170 161 170 173 173 182 170 186 161 175 191 165 149 166 177 151 168 178 196 178 178 178 176 178 201 188 170 205 202 188 184 218 212 205 215 221 223 131 135 94 119 122 141 106 109 129 136 129 118 114 112 108 102 101 102 105 107 105 104 102 99 100 100 96 95 95 92 84 83
176 152 162 161 162 157 165 174 162 166 169 155 157 163 172 170 169 167 176 173 181 183 176 173 163 177 180 145 155 149 191 160 154 182 195 200 178 168 182 181 194 196 168 198 213 180 187 215 220 206 216 235 186 102 97 114 122 138 126 130 131 154 152 166 121 117 108 99 101 106 104 108 111 111 99 94 98 98 100 98 94 88 86 90 87
178 151 155 167 164 162 170 176 162 166 170 155 163 165 175 170 168 169 181 168 190 180 164 164 164 172 173 150 162 165 195 159 167 181 203 196 173 174 189 181 186 201 168 191 222 173 186 213 218 214 203 221 108 126 112 118 108 116 123 146 137 167 180 187 115 115 120 121 121 115 112 107 99 100 102 98 93 88 90 102 102 95 89 91 87
168 151 159 165 167 165 167 177 163 164 171 165 167 165 173 172 166 170 175 175 188 168 164 162 166 167 183 160 167 175 190 162 172 183 216 183 193 175 191 184 178 202 165 190 221 170 188 221 168 210 249 129 113 93 106 101 107 116 134 155 194 167 184 194 123 127 125 123 126 121 109 100 94 92 94 99 101 99 92 89 93 91 91 87 91
159 161 163 162 163 168 167 170 164 171 171 171 165 167 168 172 168 169 170 177 174 155 176 158 169 161 175 163 159 185 191 158 157 183 191 170 216 182 176 152 161 202 165 168 219 163 187 222 153 221 164 93 96 118 96 105 116 127 140 166 171 171 195 173 140 135 135 134 129 125 127 115 108 112 112 103 99 102 101 96 100 102 94 86 92
156 161 161 164 162 167 174 178 161 167 172 174 168 163 165 168 167 169 165 170 162 170 168 172 164 151 168 164 152 186 186 159 150 168 180 182 194 207 152 194 170 224 148 177 197 161 184 211 170 207 102 72 107 78 95 106 112 123 144 153 164 166 179 169 151 132 137 137 134 130 141 130 108 97 100 107 111 107 100 90 86 96 100 96 91
160 164 161 164 162 165 172 179 159 163 169 169 182 159 167 165 161 170 153 166 165 174 166 164 155 147 157 155 162 179 180 161 146 175 175 177 182 178 192 180 190 171 178 172 149 158 168 189 140 77 76 87 95 97 110 119 118 126 123 127 108 126 148 156 109 133 147 137 137 146 138 133 139 121 103 99 100 100 102 102 91 79 90 102 98
165 170 167 161 161 164 168 181 164 166 167 175 180 160 162 167 170 163 158 172 168 176 155 158 160 142 151 164 172 171 178 172 156 174 189 171 174 167 211 189 171 171 141 128 127 148 207 117 99 114 107 128 126 131 174 115 138 132 108 95 100 94 82 78 84 81 120 136 150 148 146 150 140 136 121 109 100 103 97 92 87 76 63 76 104
170 173 159 156 163 165 172 175 166 170 177 163 166 158 164 175 177 160 161 167 163 168 149 163 162 145 158 160 171 174 165 183 157 179 201 179 171 170 198 182 172 143 123 142 176 196 127 113 128 145 133 187 129 154 92 105 90 77 78 81 82 89 89 88 78 64 140 162 142 155 151 147 148 142 139 125 119 114 112 105 98 86 69 58 67
172 168 152 158 160 165 167 173 170 171 176 155 163 158 173 183 174 165 160 167 153 160 156 158 162 147 154 163 170 173 164 193 161 177 205 197 156 186 177 188 136 133 143 168 214 160 125 145 155 142 183 141 163 129 95 102 112 103 101 97 81 69 64 78 97 146 175 94 118 116 120 119 128 135 124 125 130 132 127 122 113 108 91 72 59
167 166 155 161 163 160 167 170 167 170 170 158 163 164 178 183 173 174 151 156 159 166 164 166 158 151 158 165 168 170 168 199 163 171 208 188 175 169 188 144 137 156 145 169 214 140 132 151 138 154 195 142 139 113 117 116 90 78 56 70 96 78 72 69 104 219 97 124 111 100 104 128 147 137 135 136 144 146 144 141 139 135 131 113 89
157 165 155 159 156 157 164 163 166 169 165 161 162 166 178 191 185 162 152 162 168 181 162 170 164 162 179 158 166 170 183 188 165 173 206 194 173 172 161 137 153 160 136 174 216 132 134 147 121 80 49 75 102 129 132 111 101 93 83 58 53 75 136 165 209 167 109 116 122 106 122 153 150 126 131 139 148 150 150 156 155 160 150 144 144
124 180 154 156 157 157 165 160 166 168 165 164 166 167 178 196 183 161 161 169 176 185 166 174 168 168 181 159 165 167 186 171 176 175 205 205 164 164 134 151 165 138 146 181 194 131 130 114 93 111 62 79 84 108 91 94 88 92 96 118 163 156 53 325 51 82 76 84 104 144 141 113 85 99 129 146 157 161 157 169 173 161 171 157 149
155 173 172 165 161 162 163 167 166 167 173 172 171 168 179 187 191 177 168 169 182 180 169 174 177 171 173 157 163 165 183 174 179 176 202 212 165 137 139 160 150 147 144 187 148 107 86 79 99 73 101 103 88 99 106 102 107 107 84 62 50 49 64 5 55 76 92 127 149 120 115 108 103 120 136 130 135 154 161 170 177 161 161 151 159
175 163 168 173 166 165 166 167 163 173 178 177 167 167 179 192 184 175 170 169 182 182 173 172 172 161 172 152 165 161 185 173 179 178 200 201 136 135 147 168 146 159 153 117 80 92 103 111 107 90 39 71 120 143 122 116 121 143 145 142 110 125 61 44 43 108 214 199 149 116 124 124 145 155 139 137 136 179 182 192 138 135 159 150 158
172 165 166 173 174 172 168 169 169 175 176 174 170 170 173 186 190 178 171 165 187 183 181 163 161 159 175 156 161 163 186 172 181 178 194 186 152 145 153 169 153 149 149 116 120 102 111 133 135 136 125 28 111 142 139 135 138 147 160 143 171 157 333 345 315 222 237 167 113 123 114 131 169 151 156 169 157 191 187 129 101 118 142 160 162
171 163 163 172 174 175 176 170 173 175 177 178 169 164 172 176 188 172 163 165 176 182 157 153 166 167 171 161 165 162 184 174 188 179 187 176 164 157 157 156 157 147 127 139 146 138 131 151 154 148 135 142 180 156 154 152 156 157 171 213 165 183 138 209 181 217 224 151 131 141 141 169 169 165 179 186 172 191 155 122 127 76 58 56 146
175 170 168 177 177 176 183 175 171 176 181 178 168 159 166 172 172 164 167 163 176 185 166 175 178 177 160 167 164 169 183 179 187 184 182 171 162 163 160 159 164 155 112 153 196 163 150 160 165 160 167 165 166 163 169 180 199 189 162 182 129 221 231 149 154 176 195 145 171 155 145 152 176 212 237 227 168 154 131 147 117 124 156 160 294
177 172 172 179 171 174 180 176 172 172 177 180 165 157 167 172 173 172 182 187 184 187 185 176 174 182 170 165 161 175 181 183 187 183 175 171 170 173 171 167 170 158 136 159 184 202 166 168 176 181 180 192 159 154 178 217 223 219 231 178 50 264 179 142 153 170 187 162 184 166 169 180 176 198 238 250 148 148 131 113 121 125 159 227 169
175 171 171 174 172 171 176 181 178 175 175 175 166 160 169 184 182 181 187 191 188 188 169 168 176 171 167 169 164 176 184 184 186 185 168 174 175 173 174 170 163 157 148 147 163 184 191 172 175 191 184 182 164 173 192 202 201 243 241 247 262 236 173 151 178 106 164 183 195 186 184 187 188 189 208 244 174 162 147 141 149 161 176 145 207
174 171 171 172 175 174 176 180 177 177 179 172 170 168 174 182 183 181 186 194 190 179 172 175 178 168 171 174 167 177 184 187 184 186 163 169 177 175 175 170 160 165 154 149 159 175 189 192 183 189 179 180 172 178 192 179 191 210 222 223 224 261 192 191 140 166 152 161 201 215 227 195 177 196 201 222 202 158 151 157 166 168 157 174 179
172 172 173 175 176 175 176 180 181 178 175 176 173 172 172 179 185 182 184 195 183 174 179 174 179 170 172 176 175 174 183 184 186 181 161 176 178 178 173 171 169 168 162 157 159 161 162 183 206 191 192 185 190 186 184 181 186 206 188 211 205 240 203 216 158 169 139 153 170 178 196 196 175 190 213 233 236 150 149 178 208 165 166 166 163
172 170 171 172 176 171 176 181 183 185 173 176 176 169 167 176 188 182 185 187 189 171 184 174 180 178 173 177 175 175 181 179 181 184 169 175 182 178 174 175 177 164 167 163 161 160 155 172 197 196 190 181 189 189 190 182 188 202 194 187 187 204 261 221 240 238 186 172 165 182 185 174 192 201 189 225 264 165 144 156 226 209 150 160 170
166 168 170 174 174 174 175 180 187 186 181 177 174 165 169 181 184 178 178 189 194 175 185 179 178 184 176 174 176 179 179 178 174 183 171 177 179 180 178 173 178 168 173 166 170 163 168 166 183 183 173 173 176 182 190 178 179 195 190 183 187 201 194 212 199 210 219 228 123 167 170 188 184 177 193 199 226 189 147 158 203 180 149 180 186